Home > Weather > Andorra La Vella > Past weeks

Flag for Andorra Past Weather in Andorra La Vella, Andorra — Yesterday and Last 2 Weeks

Now
91 °F

Passing clouds.


Feels Like: 89 °F
Forecast: 48 / 83 °F
Wind: 15 mph from East

Location: Carcassonne Airport

Current Time: Aug 26, 2016 at 3:56:23 PM

Latest Report: Aug 26, 2016 at 3:30 PM


Visibility: N/A

Pressure: 30.04 "Hg (26.77 "Hg at 1031m altitude)

Humidity: 26%

Dew Point: 52 °F

Location of Andorra La VellaLocation

Past Weather in Andorra La Vella — Graph

°F

Andorra La Vella Temperature Yesterday

Maximum temperature yesterday: 91 °F (at 2:00 PM)
Minimum temperature yesterday: 63 °F (at 6:30 AM)
Average temperature yesterday: 78 °F

High & Low Weather Summary for the Past Weeks

 TemperatureHumidityPressure
High95 °F (Aug 19, 5:00 PM)100% (Aug 16, 7:30 AM)30.33 "Hg (Aug 16, 7:30 AM)
Low57 °F (Aug 13, 5:00 AM)18% (Aug 22, 3:00 PM)29.83 "Hg (Aug 19, 1:00 PM)
Average74 °F58%30.09 "Hg
* Reported Aug 11 2:30 PM — Aug 26 2:30 PM, Andorra La Vella, Weather by CustomWeather, © 2016

Note: Actual official high and low records may vary slightly from our data, if they occured in-between our weather recording intervals... More about our weather records

Advertising

Andorra La Vella Weather History for the Previous 24 Hours

Scroll right to see more
 ConditionsComfort  
Time TempWeatherWind HumidityBarometerVisibility
2:30 PM
Fri, Aug 26
90 °FPassing clouds.14 mph36%30.04 "HgN/A
2:00 PM88 °FPassing clouds.10 mph35%30.04 "HgN/A
1:30 PM86 °FPassing clouds.5 mph43%30.07 "HgN/A
1:00 PM84 °FPassing clouds.5 mph48%30.07 "HgN/A
12:30 PM82 °FSunny.3 mph51%30.07 "Hg10 mi
12:00 PM81 °FSunny.3 mph51%30.09 "Hg10 mi
11:30 AM81 °FSunny.2 mph51%30.09 "Hg10 mi
11:00 AM79 °FSunny.5 mph54%30.09 "Hg10 mi
10:30 AM77 °FSunny.1 mph61%30.09 "Hg10 mi
10:00 AM75 °FSunny.2 mph65%30.09 "Hg10 mi
9:30 AM73 °FPassing clouds.5 mph65%30.09 "HgN/A
9:00 AM72 °FSunny.5 mph73%30.09 "Hg10 mi
8:30 AM70 °FPassing clouds.3 mph78%30.09 "HgN/A
8:00 AM68 °FPassing clouds.3 mph78%30.07 "HgN/A
7:30 AM66 °FPassing clouds.5 mph88%30.07 "HgN/A
7:00 AM64 °FClear.2 mph78%30.07 "Hg10 mi
6:30 AM66 °FPassing clouds.5 mph73%30.04 "HgN/A
6:00 AM66 °FPassing clouds.6 mph73%30.04 "HgN/A
5:30 AM68 °FPassing clouds.8 mph69%30.04 "HgN/A
5:00 AM68 °FPassing clouds.8 mph69%30.04 "HgN/A
4:30 AM68 °FClear.8 mph69%30.01 "Hg10 mi
4:00 AM68 °FClear.8 mph69%30.01 "Hg10 mi
3:30 AM70 °FPassing clouds.8 mph64%30.01 "HgN/A
3:00 AM70 °FClear.9 mph69%30.01 "Hg10 mi
2:30 AM70 °FClear.8 mph64%30.01 "Hg10 mi
2:00 AM70 °FPassing clouds.8 mph69%30.04 "HgN/A
1:30 AM70 °FPassing clouds.9 mph69%30.04 "HgN/A
1:00 AM70 °FPassing clouds.8 mph64%30.04 "HgN/A
12:30 AM70 °FPassing clouds.9 mph60%30.01 "HgN/A
12:00 AM72 °FPassing clouds.9 mph57%30.01 "HgN/A
11:30 PM
Thu, Aug 25
73 °FPassing clouds.10 mph53%30.01 "HgN/A
11:00 PM73 °FClear.10 mph57%30.04 "Hg10 mi
10:30 PM73 °FClear.13 mph57%30.01 "Hg10 mi
10:00 PM75 °FClear.12 mph50%30.01 "Hg10 mi
9:30 PM77 °FSunny.12 mph47%30.01 "Hg10 mi
9:00 PM79 °FSunny.14 mph42%30.01 "Hg10 mi
8:30 PM81 °FSunny.15 mph39%29.98 "Hg10 mi
8:00 PM82 °FSunny.18 mph35%29.98 "Hg10 mi
7:30 PM84 °FSunny.18 mph33%29.98 "Hg10 mi
7:00 PM86 °FPassing clouds.21 mph31%29.98 "HgN/A
6:30 PM88 °FSunny.21 mph29%29.98 "Hg10 mi
6:00 PM88 °FSunny.22 mph27%29.98 "Hg10 mi
5:30 PM90 °FSunny.21 mph27%29.98 "Hg10 mi
5:00 PM90 °FSunny.21 mph26%29.98 "Hg10 mi
4:30 PM91 °FSunny.22 mph26%29.98 "Hg10 mi
4:00 PM91 °FSunny.22 mph26%29.98 "Hg10 mi
3:30 PM91 °FPassing clouds.21 mph26%30.01 "HgN/A
3:00 PM90 °FSunny.24 mph27%30.01 "Hg10 mi
Weather by CustomWeather, © 2016

See weather overviewHow to use our weather pages